Total_Precipitation_Accumulation
1.36 1.47 1.54 1.55 1.50 1.63 1.68 1.65 1.68 1.72 1.70 1.77 1.87 2.01 2.04 2.11 2.23 2.34 2.17 2.28 2.39 2.54 2.42 2.41 2.44 2.54 2.50 2.39 2.47 2.58 2.75 3.01 2.92 2.41 2.30 2.30 2.16 1.94 1.90 1.79 1.74 1.82 1.84
1.36 1.52 1.63 1.79 1.75 1.69 1.68 1.73 1.81 1.93 2.01 1.96 2.02 2.07 1.95 2.00 2.22 2.30 2.29 2.32 2.35 2.37 2.57 2.80 2.70 2.75 2.69 2.53 2.64 2.60 2.67 2.96 2.85 2.58 2.57 2.58 2.50 2.27 2.12 1.93 1.72 1.71 1.83
1.49 1.61 1.78 1.88 1.77 1.68 1.78 1.88 1.92 2.06 2.23 2.32 2.31 2.15 2.07 2.06 2.13 2.24 2.35 2.36 2.37 2.42 2.57 2.65 2.70 2.91 2.78 2.66 2.57 2.53 2.62 2.79 2.91 2.68 2.61 2.79 2.66 2.39 2.25 1.97 1.76 1.85 1.64
1.68 1.89 1.97 1.99 1.90 1.84 1.94 2.03 2.05 2.11 2.28 2.43 2.39 2.32 2.26 2.15 2.02 1.99 2.06 2.16 2.33 2.48 2.52 2.43 2.52 2.77 2.83 2.81 2.58 2.56 2.69 2.81 2.85 2.75 2.65 2.78 2.79 2.69 2.54 2.30 2.18 2.00 1.81
1.88 2.03 2.06 2.16 2.17 2.18 2.27 2.27 2.20 2.22 2.25 2.41 2.45 2.48 2.45 2.27 1.99 2.05 2.19 2.18 2.35 2.36 2.28 2.17 2.17 2.43 2.66 2.71 2.43 2.44 2.59 2.60 2.61 2.64 2.62 2.71 2.78 2.93 2.77 2.48 2.25 2.10 1.86
2.04 2.28 2.32 2.37 2.36 2.45 2.58 2.64 2.54 2.53 2.66 2.67 2.56 2.49 2.42 2.06 2.17 2.25 2.26 2.26 2.35 2.33 2.26 2.16 2.05 2.04 2.05 2.20 2.31 2.42 2.56 2.53 2.53 2.70 2.85 2.93 2.94 2.99 2.97 2.74 2.44 2.19 1.96
2.09 2.33 2.48 2.55 2.60 2.69 2.79 2.80 2.76 2.86 3.04 3.02 2.86 2.68 2.51 2.44 2.38 2.17 2.14 2.00 2.02 2.06 2.12 2.12 1.84 1.67 1.79 1.72 1.95 2.13 2.23 2.31 2.37 2.59 2.75 2.84 2.98 3.13 3.19 2.89 2.66 2.40 2.11
2.33 2.47 2.57 2.62 2.66 2.72 2.80 2.70 2.74 2.90 2.98 2.99 2.88 2.74 2.60 2.50 2.40 2.11 2.06 1.82 1.80 1.82 1.86 1.88 1.84 1.72 1.72 1.84 1.85 1.78 1.74 1.83 2.02 2.06 2.17 2.46 2.73 2.94 3.11 2.99 2.87 2.52 2.17
2.44 2.48 2.48 2.58 2.65 2.70 2.73 2.76 2.80 2.83 2.73 2.61 2.52 2.50 2.47 2.51 2.50 2.18 1.99 1.75 1.79 1.75 1.75 1.76 1.77 1.69 1.85 1.80 1.75 1.75 1.74 1.76 1.86 1.95 1.96 2.12 2.38 2.56 2.70 2.80 2.77 2.60 2.27
2.46 2.50 2.50 2.62 2.72 2.75 2.83 2.88 2.82 2.73 2.66 2.57 2.41 2.40 2.39 2.35 2.40 2.05 1.88 1.68 1.72 1.73 1.78 1.77 1.77 1.67 1.70 1.62 1.56 1.66 1.65 1.69 1.79 1.80 1.80 1.80 1.88 2.21 2.58 2.45 2.51 2.57 2.31
2.32 2.46 2.62 2.81 2.88 2.90 2.93 2.85 2.76 2.67 2.68 2.64 2.51 2.40 2.35 2.28 2.31 2.04 1.84 1.59 1.71 1.91 1.90 1.82 1.81 1.77 1.48 1.43 1.42 1.44 1.49 1.54 1.67 1.62 1.53 1.52 1.61 1.78 2.08 2.20 2.21 2.22 2.17
2.14 2.27 2.37 2.54 2.67 2.71 2.78 2.74 2.77 2.71 2.60 2.50 2.38 2.25 2.18 2.17 2.08 1.96 1.78 1.61 1.67 1.81 1.86 1.86 1.88 1.79 1.48 1.35 1.24 1.22 1.29 1.25 1.27 1.35 1.38 1.38 1.46 1.58 1.76 1.95 2.04 2.11 2.04
1.96 2.13 2.30 2.39 2.57 2.68 2.72 2.71 2.65 2.56 2.39 2.24 2.14 2.04 2.06 2.10 2.07 1.87 1.66 1.56 1.59 1.62 1.71 1.85 1.74 1.60 1.39 1.18 1.14 1.13 1.12 1.07 1.17 1.29 1.33 1.34 1.37 1.45 1.69 2.00 2.17 2.28 2.22
1.94 2.01 2.13 2.22 2.33 2.55 2.62 2.55 2.41 2.21 2.08 2.04 2.01 2.02 2.07 2.08 1.98 1.78 1.56 1.41 1.46 1.52 1.55 1.61 1.60 1.56 1.46 1.29 1.19 1.10 1.04 1.10 1.19 1.24 1.34 1.47 1.59 1.67 1.76 1.87 2.04 2.11 2.15
1.71 1.72 1.74 1.90 2.07 2.23 2.28 2.22 2.07 1.94 2.02 2.04 1.98 1.95 1.86 1.78 1.84 1.78 1.57 1.47 1.47 1.51 1.46 1.45 1.48 1.56 1.60 1.57 1.51 1.41 1.35 1.37 1.35 1.32 1.44 1.56 1.56 1.56 1.58 1.73 1.92 1.97 1.87
1.77 1.71 1.63 1.61 1.71 1.93 2.13 2.19 2.06 1.83 1.84 1.79 1.71 1.66 1.60 1.55 1.56 1.55 1.48 1.43 1.47 1.49 1.38 1.44 1.57 1.64 1.70 1.71 1.71 1.61 1.49 1.36 1.31 1.35 1.42 1.50 1.54 1.56 1.59 1.73 1.87 1.89 1.74
1.78 1.73 1.63 1.56 1.59 1.73 1.96 2.16 2.24 2.02 1.78 1.62 1.43 1.29 1.24 1.23 1.25 1.30 1.34 1.32 1.32 1.27 1.16 1.30 1.48 1.55 1.60 1.61 1.62 1.56 1.50 1.45 1.43 1.46 1.53 1.59 1.64 1.64 1.65 1.68 1.79 1.83 1.72
1.59 1.58 1.44 1.38 1.45 1.58 1.82 2.09 2.24 2.20 2.00 1.70 1.41 1.22 1.15 1.09 1.09 1.18 1.25 1.19 1.12 1.05 0.97 1.11 1.26 1.40 1.50 1.61 1.68 1.66 1.63 1.60 1.55 1.51 1.58 1.62 1.69 1.74 1.71 1.66 1.72 1.80 1.78
1.51 1.50 1.42 1.36 1.37 1.42 1.65 1.95 2.16 2.20 2.09 1.88 1.55 1.29 1.17 1.08 1.06 1.17 1.17 1.07 1.05 1.02 0.99 1.02 1.11 1.30 1.52 1.68 1.78 1.84 1.84 1.78 1.65 1.62 1.63 1.66 1.67 1.76 1.75 1.68 1.72 1.87 1.88
1.29 1.32 1.22 1.18 1.21 1.23 1.31 1.52 1.82 2.00 1.96 1.87 1.62 1.21 0.97 0.92 0.98 1.17 1.24 1.28 1.25 1.13 1.06 1.08 1.14 1.27 1.45 1.65 1.74 1.77 1.81 1.75 1.70 1.67 1.63 1.67 1.72 1.74 1.71 1.68 1.70 1.79 1.77
1.21 1.22 1.13 1.01 1.06 1.12 1.20 1.39 1.67 1.86 1.82 1.73 1.57 1.26 1.06 0.99 1.07 1.15 1.25 1.32 1.33 1.27 1.21 1.15 1.14 1.21 1.36 1.51 1.59 1.64 1.68 1.66 1.61 1.62 1.61 1.64 1.71 1.75 1.79 1.78 1.74 1.78 1.81
1.02 1.04 1.01 0.96 1.03 1.07 1.11 1.31 1.58 1.74 1.69 1.60 1.52 1.36 1.25 1.20 1.25 1.29 1.29 1.25 1.19 1.14 1.13 1.16 1.17 1.22 1.33 1.39 1.46 1.58 1.64 1.62 1.58 1.56 1.57 1.60 1.66 1.68 1.75 1.80 1.77 1.79 1.83
0.92 0.93 0.91 0.89 0.92 0.99 1.12 1.29 1.44 1.52 1.53 1.52 1.39 1.27 1.25 1.29 1.27 1.27 1.27 1.23 1.15 1.10 1.07 1.12 1.18 1.24 1.31 1.33 1.35 1.44 1.51 1.50 1.51 1.51 1.58 1.64 1.68 1.70 1.75 1.79 1.79 1.86 1.86
0.98 1.05 1.05 1.05 1.06 1.13 1.22 1.33 1.39 1.38 1.35 1.33 1.31 1.30 1.32 1.32 1.27 1.24 1.24 1.22 1.20 1.20 1.19 1.17 1.17 1.17 1.20 1.23 1.25 1.25 1.30 1.32 1.32 1.37 1.44 1.54 1.63 1.66 1.69 1.72 1.74 1.76 1.81
0.92 1.04 1.13 1.19 1.22 1.27 1.31 1.33 1.34 1.32 1.26 1.23 1.23 1.25 1.24 1.21 1.25 1.27 1.25 1.23 1.21 1.17 1.11 1.09 1.08 1.03 1.01 1.00 0.99 1.01 1.12 1.11 1.07 1.10 1.19 1.36 1.44 1.48 1.52 1.59 1.65 1.71 1.77
0.85 0.92 1.06 1.11 1.14 1.20 1.29 1.36 1.34 1.28 1.20 1.18 1.20 1.22 1.20 1.17 1.18 1.19 1.18 1.20 1.21 1.18 1.14 1.10 1.03 1.01 1.00 0.98 0.97 1.02 1.02 0.93 0.90 0.95 0.97 1.08 1.26 1.35 1.43 1.51 1.57 1.71 1.79